TimeEDT,TemperatureF,Dew PointF,Humidity,Sea Level PressureIn,VisibilityMPH,Wind Direction,Wind SpeedMPH,Gust SpeedMPH,PrecipitationIn,Events,Conditions,WindDirDegrees,DateUTC
12:54 AM,28.0,19.9,72,30.10,10.0,Calm,Calm,-,N/A,,Clear,0,2013-03-31 04:54:00
1:54 AM,27.0,21.9,81,30.09,10.0,Calm,Calm,-,N/A,,Clear,0,2013-03-31 05:54:00
2:54 AM,27.0,19.9,75,30.08,10.0,Calm,Calm,-,N/A,,Clear,0,2013-03-31 06:54:00
3:54 AM,25.0,19.9,81,30.09,10.0,Calm,Calm,-,N/A,,Clear,0,2013-03-31 07:54:00
4:54 AM,25.0,19.9,81,30.08,10.0,Calm,Calm,-,N/A,,Clear,0,2013-03-31 08:54:00
5:54 AM,26.1,21.0,81,30.07,10.0,Calm,Calm,-,N/A,,Clear,0,2013-03-31 09:54:00
6:54 AM,25.0,21.0,85,30.07,10.0,Calm,Calm,-,N/A,,Clear,0,2013-03-31 10:54:00
7:54 AM,28.9,23.0,78,30.06,10.0,Calm,Calm,-,N/A,,Clear,0,2013-03-31 11:54:00
8:54 AM,33.1,23.0,66,30.05,10.0,Calm,Calm,-,N/A,,Clear,0,2013-03-31 12:54:00
9:54 AM,41.0,24.1,51,30.03,10.0,NNE,3.5,-,N/A,,Clear,20,2013-03-31 13:54:00
10:54 AM,46.9,21.0,36,30.01,10.0,South,13.8,23.0,N/A,,Clear,180,2013-03-31 14:54:00
11:54 AM,50.0,21.0,32,29.99,10.0,Variable,6.9,16.1,N/A,,Clear,0,2013-03-31 15:54:00
12:54 PM,50.0,19.9,31,29.97,10.0,South,13.8,21.9,N/A,,Clear,190,2013-03-31 16:54:00
1:54 PM,51.1,21.9,32,29.94,10.0,Variable,6.9,-,N/A,,Clear,0,2013-03-31 17:54:00
2:54 PM,51.1,21.0,31,29.90,10.0,SSE,10.4,18.4,N/A,,Scattered Clouds,160,2013-03-31 18:54:00
3:54 PM,51.1,23.0,33,29.88,10.0,South,8.1,-,N/A,,Overcast,170,2013-03-31 19:54:00
4:54 PM,48.0,28.0,46,29.88,10.0,SSW,11.5,24.2,N/A,,Overcast,200,2013-03-31 20:54:00
5:54 PM,45.0,30.9,58,29.88,10.0,SSE,13.8,31.1,0.00,,Overcast,160,2013-03-31 21:54:00
6:54 PM,41.0,35.1,79,29.86,10.0,SE,8.1,-,0.01,,Overcast,140,2013-03-31 22:54:00
7:54 PM,41.0,34.0,76,29.83,10.0,East,4.6,-,N/A,,Overcast,90,2013-03-31 23:54:00
9:54 PM,39.9,34.0,79,29.73,8.0,NE,5.8,-,0.00,Rain,Light Rain,40,2013-04-01 01:54:00
10:06 PM,39.2,33.8,81,29.72,10.0,Variable,5.8,-,0.00,Rain,Light Rain,0,2013-04-01 02:06:00
10:21 PM,39.2,35.6,87,29.72,10.0,NNE,3.5,-,0.00,Rain,Light Rain,20,2013-04-01 02:21:00